This is the latest recevied weather packets stored in our database for station/object BM1CKC-10. If no packets are shown the sender has not sent any weather packets the latest 10 day(s).
| Time | Temp. | Humidity | Pressure | Rain* | Wind** | Luminosity | Snow |
|---|---|---|---|---|---|---|---|
| 1778204999 | 27.78° C | 62% | 1008.9 hPa | - | - | - | - |
| 1778203798 | 27.78° C | 62% | 1008.6 hPa | - | - | - | - |
| 1778202605 | 28.33° C | 61% | 1008.5 hPa | - | - | - | - |
| 1778201398 | 28.33° C | 60% | 1008.4 hPa | - | - | - | - |
| 1778200198 | 27.78° C | 62% | 1008.2 hPa | - | - | - | - |
| 1778198998 | 28.33° C | 60% | 1007.9 hPa | - | - | - | - |
| 1778197799 | 28.33° C | 60% | 1007.7 hPa | - | - | - | - |
| 1778196599 | 26.67° C | 60% | 1007.7 hPa | - | - | - | - |
| 1778195398 | 25.56° C | 64% | 1007.6 hPa | - | - | - | - |
| 1778194199 | 25° C | 59% | 1007.3 hPa | - | - | - | - |
| 1778192998 | 25° C | 61% | 1007.1 hPa | - | - | - | - |
| 1778191799 | 25° C | 61% | 1006.8 hPa | - | - | - | - |
| 1778189399 | 25.56° C | 59% | 1006.4 hPa | - | - | - | - |
| 1778188199 | 25.56° C | 60% | 1006.4 hPa | - | - | - | - |
| 1778186998 | 25.56° C | 59% | 1006.2 hPa | - | - | - | - |
| 1778185798 | 25.56° C | 60% | 1005.9 hPa | - | - | - | - |
| 1778184599 | 25° C | 61% | 1005.6 hPa | - | - | - | - |
| 1778183399 | 25° C | 60% | 1005.4 hPa | - | - | - | - |
| 1778182199 | 25.56° C | 60% | 1005.2 hPa | - | - | - | - |
| 1778180999 | 25.56° C | 59% | 1005.2 hPa | - | - | - | - |
| 1778179799 | 26.11° C | 59% | 1005.2 hPa | - | - | - | - |
| 1778178599 | 25.56° C | 58% | 1005.1 hPa | - | - | - | - |
| 1778177398 | 25.56° C | 59% | 1005 hPa | - | - | - | - |
| 1778176198 | 25° C | 59% | 1004.9 hPa | - | - | - | - |
| 1778174999 | 25.56° C | 59% | 1004.7 hPa | - | - | - | - |
* Rain since midnight (hover to see other rain measurements)
** Current wind speed in m/s (hover to see current wind gust speed)